Torna al catalogo

STARLINK-32486

AttivoComunicazioniVLEO
NORAD 61854·PAYLOAD·🇺🇸 United States

Lanciato Nov 7, 2024 da Cape Canaveral Space Force Station

Loading…

Prossimi Passaggi (prossime 24 ore)

TLE

AggiornatoSource: CelesTrak SupGP

Epoca: Sep 14, 2026, 21:44 UTC

1 61854C 24202K   26257.90604167  .00029139  00000+0  10558-2 0  2570
2 61854  42.9992 249.1709 0001414 263.9905 267.4405 15.27553459    12

Traccia STARLINK-32486 in tempo reale con AllMySat

Download on the App Store